Location: Les Jeannots
(43.2262°N, 5.5774°E)
Time: 19:10:57
(UTC+00:00)

GP-B - Pass Details

Date: 05 July 2020
Orbit: 631 x 635 km, 89.8° (Epoch: 12 August)

Event Time Altitude Azimuth Distance (km) Brightness Sun altitude
Rises 23:42:07 0° 353° (N) 2,940 7.9 -24.1°
Reaches altitude 10° 23:44:28 10° 345° (NNW) 2,026 6.7 -24.1°
Maximum altitude 23:48:32 36° 279° (W) 1,001 4.1 -24.1°
Enters shadow 23:48:52 36° 268° (W) 1,010 4.0 -24.1°
